Flag for Poland Weather past 2 weeks in Płock, Poland

Now
57 °F

Cool.


Feels Like: 57 °F
Forecast: 54 / 83 °F
Wind: 2 mph from East

Location: Plock

Current Time: Aug 2, 2015 at 1:28:29 AM

Latest Report: Aug 2, 2015 at 12:00 AM


Visibility: 25 mi

Pressure: 30.15 "Hg

Humidity: 63%

Dew point: 45 °F

Location of PłockLocation

Historic Weather in Płock — Graph

°F

Płock temperature yesterday

Maximum temperature yesterday: 72 °F (at 5:00 PM)
Minimum temperature yesterday: 43 °F (at 4:00 AM)
Average temperature yesterday: 61 °F

Past Weeks' High & Low Weather Summary

 TemperatureHumidityPressure
High93 °F (Jul 18, 3:00 PM)97% (Jul 25, 9:00 PM)30.16 "Hg (Jul 25, 9:00 PM)
Low43 °F (Aug 1, 4:00 AM)30% (Jul 18, 1:00 PM)29.61 "Hg (Jul 25, 3:00 PM)
Average66 °F67%29.86 "Hg
* Reported Midnight between Jul 17 and Jul 18 — Aug 1 10:00 PM, Płock, Weather by CustomWeather, © 2015

Note: Actual official high and low records may vary slightly from our data, if they occured in-between our weather recording intervals... More about our weather records

Advertising

Płock weather history for previous 24 hours

 ConditionsComfort  
Time TempWeatherWind HumidityBarometerVisibility
10:00 PM
Sat, Aug 1
58 °FCool.2 mph64%30.13 "Hg15 mi
9:00 PM61 °FCool.2 mph61%30.12 "Hg16 mi
8:00 PM68 °FMild.2 mph44%30.10 "Hg22 mi
7:00 PM71 °FMild.1 mph36%30.09 "Hg25 mi
6:00 PM72 °FMild.3 mph34%30.09 "Hg19 mi
5:00 PM72 °FMild.2 mph33%30.10 "Hg22 mi
4:00 PM72 °FMild.2 mph35%30.11 "Hg22 mi
3:00 PM70 °FMild.3 mph36%30.12 "Hg22 mi
2:00 PM69 °FMild.2 mph40%30.13 "Hg17 mi
1:00 PM68 °FMild.2 mph43%30.14 "Hg18 mi
12:00 PM67 °FMild.2 mph41%30.15 "Hg19 mi
11:00 AM66 °FMild.3 mph45%30.15 "Hg19 mi
10:00 AM64 °FMild.3 mph51%30.16 "Hg22 mi
9:00 AM60 °FCool.3 mph66%30.15 "Hg18 mi
8:00 AM57 °FCool.3 mph72%30.15 "Hg17 mi
7:00 AM51 °FCool.1 mph96%30.15 "Hg9 mi
4:00 AM43 °FFog.1 mph97%30.14 "Hg5 mi
3:00 AM44 °FFog.No wind96%30.14 "Hg6 mi
2:00 AM45 °FFog.No wind96%30.12 "Hg5 mi
1:00 AM47 °FCool.No wind95%30.13 "Hg6 mi
Weather by CustomWeather, © 2015

See weather overviewHow to use our weather pages